[[{"header":{"parameterUnit":"m.s-1","parameterCategory":1,"la1":30.2991,"la2":30.254,"lo1":-89.0895,"lo2":-89.0444,"dy":0.0017,"dx":0.0017,"nx":28,"ny":28,"refTime":"2024-12-06T09:00:00:Z","depth":0,"parameterNumber":2,"parameterNumberName":"U-component_of_WINDS"},"data":[0,0,0,0,0,0,0,0,0,0,0,0,0,0,0,0,0,0,0,0,0,0,0,0,0,0,0,0,0,0,0,0,0,0,0,0,0,0,0,0,0,0,0,0,0,0,0,0,0,0,0,0,0,0,0,0,0,0,-1.8624,-1.8625,0,-1.8666,-1.8666,-1.8667,-1.8605,-1.8603,-1.8601,-1.8599,-1.8642,-1.8645,-1.8648,0,0,0,0,0,0,0,0,0,0,0,0,0,-1.8492,-1.8495,-1.8624,-1.8625,-1.8625,-1.8666,-1.8666,-1.8667,-1.8606,-1.8603,-1.86,-1.8598,-1.8641,-1.8645,-1.8649,0,0,0,0,0,0,0,0,0,0,0,0,0,-1.8543,-1.8496,-1.8624,-1.86,-1.8598,-1.8665,-1.8666,-1.8667,-1.8606,-1.8603,-1.86,-1.8597,-1.864,-1.8644,-1.8649,-1.8743,0,0,-1.8664,-1.8666,0,0,0,0,0,0,0,0,-1.854,-1.8548,-1.8603,-1.8602,-1.86,-1.8627,-1.8635,-1.8692,-1.8607,-1.8603,-1.8599,-1.8595,-1.864,-1.8644,-1.8659,-1.8745,-1.8747,-1.8664,-1.8667,-1.8669,-1.867,0,0,0,0,0,0,0,-1.8537,-1.8546,-1.8641,-1.8604,-1.8602,-1.8586,-1.859,-1.8646,-1.8639,-1.8603,-1.8599,-1.8605,-1.8638,-1.8655,-1.866,-1.8747,-1.8664,-1.8668,-1.8671,-1.8673,-1.8911,-1.8914,0,0,0,0,0,0,-1.8536,-1.8543,-1.8639,-1.8642,-1.8561,-1.8591,-1.8596,-1.8622,-1.8638,-1.8638,-1.8607,-1.8602,-1.8648,-1.8654,-1.8661,-1.8772,-1.8669,-1.8673,-1.8676,-1.8907,-1.8911,-1.8915,0,0,0,0,0,0,-1.8534,-1.8545,-1.8638,-1.8591,-1.8602,-1.8597,-1.8627,-1.8624,-1.864,-1.8641,-1.864,-1.8625,-1.8646,-1.8654,-1.8723,-1.8772,-1.8675,-1.868,-1.8903,-1.8908,-1.8913,-1.8994,0,0,0,0,0,0,-1.853,-1.8545,-1.8581,-1.8593,-1.8605,-1.8699,-1.863,-1.8627,-1.8649,-1.8642,-1.8658,-1.8658,-1.8644,-1.8716,-1.8727,-1.8777,-1.8683,-1.8899,-1.8905,-1.8912,-1.8987,-1.9001,-1.9014,0,0,0,0,0,-1.8526,-1.8602,-1.8583,-1.8595,-1.865,-1.8702,-1.8709,-1.8692,-1.8653,-1.8689,-1.8689,-1.8657,-1.8764,-1.8723,-1.8736,-1.8788,-1.8895,-1.8903,-1.8911,-1.8981,-1.8998,-1.9013,0,0,0,0,0,0,-1.8597,-1.8603,-1.8582,-1.8665,-1.8683,-1.8692,-1.8737,-1.8711,-1.8741,-1.8734,-1.8711,-1.8715,-1.8788,-1.8794,-1.8748,-1.8878,-1.8823,-1.8834,-1.8872,-1.8889,-1.8902,-1.89,-1.8687,0,0,0,0,0,-1.8622,-1.8664,-1.8668,-1.874,-1.875,-1.8742,-1.8764,-1.8749,-1.8768,-1.8775,-1.8781,-1.88,-1.8837,-1.8863,-1.8898,-1.8986,-1.8989,-1.9028,-1.9041,-1.9052,-1.9063,-1.9109,-1.9126,-1.8941,-1.8941,-1.8941,0,0,-1.8675,-1.8684,-1.8712,-1.8755,-1.8767,-1.8812,-1.8749,-1.8799,-1.8831,-1.8783,-1.8848,-1.8852,-1.8872,-1.895,-1.8985,-1.8958,-1.9114,-1.9062,-1.9071,-1.9075,-1.9119,-1.9137,-1.9152,-1.8946,-1.8945,-1.8944,0,0,-1.8794,-1.8805,-1.8866,-1.888,-1.8899,-1.8893,-1.8908,-1.892,-1.8921,-1.8985,-1.8949,-1.8987,-1.9053,-1.9068,-1.9085,-1.9208,-1.9179,-1.9219,-1.929,-1.9336,-1.9351,-1.9363,-1.9408,-1.9424,-1.9229,-1.9229,-1.9229,0,-1.8858,-1.8923,-1.8901,-1.8953,-1.8973,-1.893,-1.8992,-1.9006,-1.9036,-1.9051,-1.9019,-1.91,-1.911,-1.9192,-1.9222,-1.9236,-1.9252,-1.9219,-1.935,-1.9363,-1.9374,-1.9416,-1.9433,-1.9234,-1.9234,-1.9233,-1.9233,0,-1.9,-1.9046,-1.9093,-1.9123,-1.9147,-1.9204,-1.9191,-1.9218,-1.92,-1.9197,-1.9263,-1.9273,-1.9309,-1.9327,-1.931,-1.9406,-1.9388,-1.9354,-1.9298,-1.9397,-1.9436,-1.9452,-1.9241,-1.9239,-1.9238,-1.9237,0,0,-1.9168,-1.9183,-1.9201,-1.9214,-1.9231,-1.9266,-1.932,-1.9355,-1.9379,-1.94,-1.9445,-1.9501,-1.9469,-1.9487,-1.9471,-1.9511,-1.9608,-1.9472,-1.9472,-1.9498,-1.9714,-1.9741,-1.976,-1.9588,-1.9591,-1.9594,-1.9713,0,-1.9288,-1.9381,-1.9362,-1.9454,-1.9496,-1.9454,-1.9501,-1.9517,-1.9515,-1.9549,-1.9546,-1.9587,-1.9541,-1.9552,-1.9589,-1.9589,-1.9651,-1.9579,-1.9631,-1.9633,-1.9628,-1.978,-1.9809,-1.9921,-1.9728,-1.973,-1.9732,0,-1.944,-1.9467,-1.9563,-1.9572,-1.9589,-1.9632,-1.9661,-1.9695,-1.9711,-1.9706,-1.9726,-1.9702,-1.9755,-1.9698,-1.9771,-1.9722,-1.9741,-1.9744,-1.9748,-1.9753,-1.969,-1.9791,-1.9956,-1.9973,-1.9756,-1.9754,-1.9752,0,-1.9554,-1.9613,-1.9678,-1.969,-1.9703,-1.9734,-1.974,-1.9753,-1.9775,-1.98,-1.9814,-1.9845,-1.9863,-1.9888,-1.9873,-1.9832,-1.9948,-1.9889,-1.9946,-1.9947,-1.9974,-1.9973,-2.0146,-1.9985,-1.9984,-1.9984,-1.9984,0,-1.969,-1.9751,-1.9729,-1.977,-1.9836,-1.9813,-1.9879,-1.988,-1.9892,-1.9931,-1.9896,-1.9934,-1.9911,-1.9947,-1.9935,-1.9997,-2.0005,-2.0003,-2.0,-2.0007,-2.0008,-2.0021,-2.0013,-1.9989,-1.9988,-1.9987,-1.9986,0,-1.983,-1.9818,-1.9886,-1.9891,-1.9894,-1.9943,-1.9947,-1.9984,-1.9978,-2.0029,-2.0039,-2.003,-2.007,-2.0057,-2.01,-2.0092,-2.0171,-2.0157,-2.0166,-2.0163,-2.0221,-2.0216,-2.041,-2.0434,-2.0256,-2.0257,-2.0259,0,-1.9918,-1.9964,-1.9974,-1.9997,-2.0006,-2.0045,-2.0066,-2.0045,-2.0068,-2.0089,-2.0124,-2.016,-2.0189,-2.0255,-2.0252,-2.0284,-2.0271,-2.0337,-2.0276,-2.0282,-2.0273,-2.0271,-2.0276,-2.035,-2.0352,-2.0353,-2.0355,0,-2.0077,-2.0068,-2.0101,-2.0131,-2.0157,-2.018,-2.02,-2.0221,-2.02,-2.0228,-2.0269,-2.029,-2.0334,-2.0371,-2.0399,-2.0406,-2.0377,-2.0373,-2.0388,-2.0398,-2.0401,-2.0401,-2.02,-2.037,-2.0368,-2.0367,-2.0366,-2.0366,-2.0194,-2.0232,-2.0245,-2.0282,-2.0294,-2.0313,-2.0348,-2.0345,-2.0378,-2.0412,-2.0396,-2.0443,-2.0456,-2.0492,-2.0502,-2.0538,-2.0512,-2.0534,-2.054,-2.0546,-2.0554,-2.0394,-2.0543,-2.0542,-2.0542,-2.0541,-2.0541,0,-2.0352,-2.0357,-2.0391,-2.0419,-2.0448,-2.0417,-2.0437,-2.0463,-2.0504,-2.0519,-2.0547,-2.0593,-2.0628,-2.0627,-2.0659,-2.0688,-2.0676,-2.0697,-2.0696,-2.0698,-2.0574,-2.0558,-2.0707,-2.0707,-2.0707,-2.0707,-2.0707,-2.0707,-2.0437,-2.05,-2.0493,-2.0561,-2.0566,-2.0611,-2.0625,-2.0641,-2.0653,-2.0705,-2.0734,-2.0733,-2.0741,-2.0773,-2.0804,-2.0803,-2.0817,-2.0844,-2.0838,-2.0723,-2.0706,-2.0691,-2.0676,-2.0847,-2.0847,-2.0958,-2.0959,-2.096]},{"header":{"parameterUnit":"m.s-1","parameterCategory":1,"la1":30.2991,"la2":30.254,"lo1":-89.0895,"lo2":-89.0444,"dy":0.0017,"dx":0.0017,"nx":28,"ny":28,"refTime":"2024-12-06T09:00:00:Z","depth":0,"parameterNumber":3,"parameterNumberName":"V-component_of_WINDS"},"data":[0,0,0,0,0,0,0,0,0,0,0,0,0,0,0,0,0,0,0,0,0,0,0,0,0,0,0,0,0,0,0,0,0,0,0,0,0,0,0,0,0,0,0,0,0,0,0,0,0,0,0,0,0,0,0,0,0,0,-8.0078,-8.008,0,-8.0218,-8.0219,-8.0221,-8.0127,-8.0123,-8.0119,-8.0115,-8.0251,-8.0258,-8.0265,0,0,0,0,0,0,0,0,0,0,0,0,0,-7.9723,-7.9731,-8.0078,-8.008,-8.0082,-8.0217,-8.0219,-8.0221,-8.0128,-8.0123,-8.0118,-8.0113,-8.0248,-8.0257,-8.0266,0,0,0,0,0,0,0,0,0,0,0,0,0,-7.9872,-7.9733,-8.0078,-8.0052,-8.0051,-8.0217,-8.0219,-8.0222,-8.0129,-8.0123,-8.0116,-8.0111,-8.0245,-8.0256,-8.0267,-8.0465,0,0,-8.0302,-8.0307,0,0,0,0,0,0,0,0,-7.9863,-7.9885,-8.0054,-8.0054,-8.0053,-8.0149,-8.0144,-8.0303,-8.0131,-8.0099,-8.0115,-8.0107,-8.0221,-8.0234,-8.0274,-8.0471,-8.0477,-8.0303,-8.031,-8.0315,-8.0318,0,0,0,0,0,0,0,-7.9853,-7.9878,-8.0133,-8.0056,-8.0056,-8.003,-8.0045,-8.0174,-8.0194,-8.0101,-8.0095,-8.0113,-8.022,-8.0264,-8.0277,-8.0479,-8.0303,-8.0313,-8.032,-8.0324,-8.0843,-8.085,0,0,0,0,0,0,-7.9846,-7.987,-8.0128,-8.0137,-7.9941,-8.0042,-8.0058,-8.0124,-8.0192,-8.0197,-8.0119,-8.0108,-8.0247,-8.0264,-8.0281,-8.0516,-8.0315,-8.0325,-8.0332,-8.0836,-8.0844,-8.0852,0,0,0,0,0,0,-7.9839,-7.987,-8.0123,-8.0002,-8.0032,-8.0055,-8.013,-8.013,-8.0174,-8.0205,-8.0208,-8.016,-8.0243,-8.0265,-8.042,-8.0519,-8.0331,-8.0341,-8.0828,-8.0839,-8.0848,-8.0988,0,0,0,0,0,0,-7.9829,-7.9868,-7.9945,-8.0005,-8.0039,-8.0262,-8.0137,-8.0138,-8.0195,-8.0183,-8.0245,-8.0249,-8.024,-8.0404,-8.0431,-8.0532,-8.035,-8.0819,-8.0833,-8.0845,-8.0974,-8.1002,-8.1025,0,0,0,0,0,-7.9817,-7.9978,-7.995,-7.9981,-8.0137,-8.0268,-8.0288,-8.0276,-8.0203,-8.028,-8.0299,-8.0247,-8.0504,-8.042,-8.0451,-8.0556,-8.0813,-8.0829,-8.0844,-8.0963,-8.0996,-8.1025,0,0,0,0,0,0,-7.9927,-7.9985,-7.9954,-8.014,-8.02,-8.0252,-8.0348,-8.0312,-8.0392,-8.0377,-8.0356,-8.0371,-8.0533,-8.056,-8.0465,-8.075,-8.0646,-8.0669,-8.0727,-8.0759,-8.0783,-8.0773,-8.0359,0,0,0,0,0,-7.9973,-8.0078,-8.0122,-8.0281,-8.0313,-8.0326,-8.0383,-8.0369,-8.0429,-8.0453,-8.0484,-8.0543,-8.0637,-8.0699,-8.0787,-8.0978,-8.0989,-8.1065,-8.109,-8.1111,-8.113,-8.1232,-8.1266,-8.0904,-8.0903,-8.0903,0,0,-8.0069,-8.0114,-8.018,-8.0304,-8.0349,-8.0456,-8.0348,-8.0465,-8.0543,-8.047,-8.0619,-8.0644,-8.0708,-8.0881,-8.0959,-8.0908,-8.1233,-8.1131,-8.1147,-8.1155,-8.1251,-8.1286,-8.1316,-8.0914,-8.0912,-8.0911,0,0,-8.0298,-8.0343,-8.0481,-8.0528,-8.0599,-8.0606,-8.0639,-8.0697,-8.0712,-8.0861,-8.0809,-8.0899,-8.1062,-8.111,-8.1155,-8.1402,-8.1356,-8.1431,-8.1563,-8.1662,-8.1691,-8.1716,-8.1803,-8.1835,-8.145,-8.145,-8.1451,0,-8.0408,-8.0569,-8.0555,-8.0677,-8.0732,-8.0673,-8.0811,-8.0857,-8.0951,-8.0989,-8.0932,-8.1134,-8.1173,-8.1356,-8.1417,-8.1456,-8.1491,-8.1423,-8.1688,-8.1713,-8.1736,-8.1819,-8.1852,-8.1459,-8.1458,-8.1457,-8.1456,0,-8.0699,-8.0812,-8.0913,-8.1009,-8.1075,-8.1204,-8.1208,-8.1276,-8.1256,-8.1269,-8.1421,-8.1465,-8.1561,-8.1603,-8.1584,-8.1784,-8.175,-8.1691,-8.1587,-8.178,-8.1857,-8.1889,-8.1471,-8.1468,-8.1466,-8.1464,0,0,-8.1002,-8.1089,-8.1126,-8.1169,-8.1242,-8.1327,-8.1452,-8.1548,-8.1606,-8.1673,-8.1776,-8.1915,-8.1861,-8.1912,-8.1897,-8.1985,-8.2176,-8.1914,-8.1915,-8.1961,-8.2398,-8.2442,-8.2479,-8.2146,-8.2152,-8.2157,-8.2392,0,-8.1235,-8.1456,-8.1447,-8.1653,-8.1756,-8.1701,-8.1809,-8.1865,-8.188,-8.1967,-8.1982,-8.2081,-8.2002,-8.2032,-8.2116,-8.2135,-8.2263,-8.2118,-8.224,-8.2244,-8.2226,-8.2519,-8.2567,-8.2786,-8.2422,-8.2427,-8.2431,0,-8.1536,-8.1616,-8.1833,-8.189,-8.1933,-8.2031,-8.2118,-8.2203,-8.2263,-8.2267,-8.2326,-8.2297,-8.242,-8.2314,-8.2483,-8.2385,-8.2433,-8.245,-8.2458,-8.2469,-8.2349,-8.2537,-8.2856,-8.2889,-8.2479,-8.2475,-8.2471,0,-8.1734,-8.1895,-8.2046,-8.2084,-8.2155,-8.2225,-8.2257,-8.2312,-8.237,-8.2445,-8.2482,-8.2569,-8.2617,-8.2684,-8.2678,-8.2601,-8.285,-8.2743,-8.2856,-8.2856,-8.291,-8.2907,-8.3241,-8.2943,-8.2942,-8.2942,-8.2941,0,-8.1995,-8.213,-8.2136,-8.2229,-8.2377,-8.2364,-8.251,-8.2535,-8.2584,-8.2678,-8.2635,-8.2724,-8.2711,-8.28,-8.2795,-8.2936,-8.2957,-8.2963,-8.296,-8.2967,-8.2966,-8.2998,-8.2983,-8.2951,-8.2949,-8.2947,-8.2945,0,-8.2242,-8.2252,-8.2412,-8.2466,-8.2483,-8.259,-8.2635,-8.2721,-8.2733,-8.2853,-8.288,-8.2897,-8.2999,-8.3,-8.3116,-8.3113,-8.3284,-8.3264,-8.3265,-8.3261,-8.3373,-8.3362,-8.374,-8.3788,-8.3459,-8.3462,-8.3465,0,-8.2407,-8.251,-8.2576,-8.2638,-8.2675,-8.2774,-8.2834,-8.2824,-8.2887,-8.2964,-8.3041,-8.3139,-8.3217,-8.3382,-8.3403,-8.3491,-8.3472,-8.3598,-8.3485,-8.3488,-8.3473,-8.3467,-8.3477,-8.362,-8.3624,-8.3627,-8.3629,0,-8.27,-8.27,-8.2789,-8.288,-8.2953,-8.3024,-8.3088,-8.314,-8.3138,-8.3211,-8.3316,-8.3377,-8.3496,-8.3593,-8.3678,-8.3708,-8.3668,-8.3665,-8.3696,-8.3703,-8.3699,-8.3702,-8.3325,-8.3656,-8.3654,-8.3652,-8.365,-8.3649,-8.2911,-8.2999,-8.306,-8.316,-8.3208,-8.327,-8.3354,-8.3377,-8.3465,-8.3563,-8.3551,-8.3668,-8.3724,-8.3834,-8.3872,-8.3961,-8.3916,-8.3961,-8.3972,-8.3983,-8.3995,-8.3686,-8.3976,-8.3975,-8.3975,-8.3974,-8.3973,0,-8.3201,-8.3237,-8.333,-8.3423,-8.3502,-8.346,-8.3529,-8.3597,-8.3701,-8.3758,-8.3836,-8.3956,-8.405,-8.4079,-8.4169,-8.4235,-8.4219,-8.4259,-8.4254,-8.4261,-8.403,-8.3995,-8.4271,-8.4271,-8.4271,-8.427,-8.427,-8.427,-8.3361,-8.3508,-8.3515,-8.3685,-8.372,-8.3836,-8.3879,-8.3935,-8.398,-8.4117,-8.4196,-8.4215,-8.426,-8.4353,-8.4437,-8.4443,-8.4478,-8.4525,-8.4524,-8.4307,-8.4277,-8.4249,-8.4215,-8.4533,-8.4534,-8.4747,-8.4749,-8.4751]}]]